| time (UTC) | temp F | wind direction | speed knots | gust knots | rain 1hr in | rain 24hr in | rain mn in | humidity % | barometer mb |
| 20260904175717 | 95 | 114 | 3.5 | 9.6 | 0.00 | 0.00 | 0.00 | 46 | 1013.1 |
| 20260904175150 | 95 | 114 | 3.5 | 7.8 | 0.00 | 0.00 | 0.00 | 44 | 1013.0 |
| 20260904174625 | 96 | 148 | 3.5 | 7.8 | 0.00 | 0.00 | 0.00 | 43 | 1013.1 |
| 20260904174326 | 95 | 138 | 3.5 | 7.8 | 0.00 | 0.00 | 0.00 | 46 | 1013.1 |
| 20260904173541 | 95 | 111 | 2.6 | 10.4 | 0.00 | 0.00 | 0.00 | 45 | 1013.1 |
| 20260904173259 | 95 | 226 | 1.7 | 7.8 | 0.00 | 0.00 | 0.00 | 43 | 1013.3 |
| 20260904172541 | 95 | 221 | 1.7 | 7.8 | 0.00 | 0.00 | 0.00 | 46 | 1013.4 |
| 20260904172243 | 94 | 150 | 2.6 | 7.8 | 0.00 | 0.00 | 0.00 | 47 | 1013.5 |
| 20260904171511 | 94 | 234 | 3.5 | 7.8 | 0.00 | 0.00 | 0.00 | 46 | 1013.5 |
| 20260904170942 | 94 | 101 | 1.7 | 6.1 | 0.00 | 0.00 | 0.00 | 45 | 1013.5 |
| 20260904170440 | 93 | 230 | 1.7 | 6.1 | 0.00 | 0.00 | 0.00 | 49 | 1013.5 |
| 20260904165939 | 93 | 146 | 2.6 | 6.1 | 0.00 | 0.00 | 0.00 | 49 | 1013.6 |
| 20260904165410 | 92 | 105 | 2.6 | 6.1 | 0.00 | 0.00 | 0.00 | 51 | 1013.6 |
| 20260904164908 | 92 | 212 | 2.6 | 8.7 | 0.00 | 0.00 | 0.00 | 52 | 1013.7 |
| 20260904164342 | 92 | 223 | 2.6 | 8.7 | 0.00 | 0.00 | 0.00 | 52 | 1013.7 |
| 20260904163841 | 91 | 244 | 2.6 | 7.8 | 0.00 | 0.00 | 0.00 | 53 | 1013.7 |
| 20260904163343 | 91 | 191 | 2.6 | 7.8 | 0.00 | 0.00 | 0.00 | 55 | 1013.7 |
| 20260904163105 | 90 | 219 | 3.5 | 7.0 | 0.00 | 0.00 | 0.00 | 55 | 1013.8 |
| 20260904162345 | 90 | 238 | 2.6 | 6.1 | 0.00 | 0.00 | 0.00 | 55 | 1013.7 |
| 20260904161818 | 90 | 214 | 3.5 | 9.6 | 0.00 | 0.00 | 0.00 | 55 | 1013.7 |
| 20260904161318 | 90 | 136 | 3.5 | 9.6 | 0.00 | 0.00 | 0.00 | 58 | 1013.7 |
| 20260904161245 | 90 | 122 | 2.6 | 7.8 | 0.00 | 0.00 | 0.00 | 58 | 1013.7 |
| 20260904160305 | 90 | 128 | 3.5 | 8.7 | 0.00 | 0.00 | 0.00 | 58 | 1013.8 |
| 20260904155736 | 89 | 139 | 3.5 | 8.7 | 0.00 | 0.00 | 0.00 | 58 | 1013.8 |
| 20260904155234 | 89 | 149 | 3.5 | 8.7 | 0.00 | 0.00 | 0.00 | 59 | 1013.7 |
| 20260904154707 | 89 | 233 | 3.5 | 8.7 | 0.00 | 0.00 | 0.00 | 60 | 1013.7 |
| 20260904154206 | 88 | 207 | 3.5 | 8.7 | 0.00 | 0.00 | 0.00 | 61 | 1013.7 |
| 20260904153638 | 88 | 185 | 2.6 | 8.7 | 0.00 | 0.00 | 0.00 | 62 | 1013.6 |
| 20260904153134 | 87 | 217 | 4.3 | 7.0 | 0.00 | 0.00 | 0.00 | 65 | 1013.7 |
| 20260904152608 | 87 | 226 | 5.2 | 10.4 | 0.00 | 0.00 | 0.00 | 65 | 1013.6 |
| 20260904152306 | 87 | 245 | 3.5 | 9.6 | 0.00 | 0.00 | 0.00 | 65 | 1013.6 |
| 20260904151514 | 86 | 135 | 2.6 | 8.7 | 0.00 | 0.00 | 0.00 | 68 | 1013.5 |
| 20260904150954 | 86 | 210 | 2.6 | 8.7 | 0.00 | 0.00 | 0.00 | 69 | 1013.5 |
| 20260904150429 | 85 | 181 | 2.6 | 7.0 | 0.00 | 0.00 | 0.00 | 70 | 1013.5 |
| 20260904145902 | 85 | 195 | 2.6 | 7.0 | 0.00 | 0.00 | 0.00 | 71 | 1013.6 |
| 20260904145357 | 84 | 114 | 2.6 | 7.0 | 0.00 | 0.00 | 0.00 | 72 | 1013.5 |
| 20260904144857 | 84 | 236 | 3.5 | 8.7 | 0.00 | 0.00 | 0.00 | 73 | 1013.6 |
| 20260904144829 | 83 | 167 | 3.5 | 8.7 | 0.00 | 0.00 | 0.00 | 75 | 1013.6 |
| 20260904143809 | 83 | 196 | 3.5 | 7.8 | 0.00 | 0.00 | 0.00 | 75 | 1013.6 |
| 20260904143236 | 83 | 226 | 3.5 | 6.1 | 0.00 | 0.00 | 0.00 | 75 | 1013.7 |
| 20260904142925 | 83 | 218 | 3.5 | 7.0 | 0.00 | 0.00 | 0.00 | 76 | 1013.7 |
| 20260904142206 | 83 | 202 | 2.6 | 7.0 | 0.00 | 0.00 | 0.00 | 77 | 1013.7 |
| 20260904141645 | 83 | 207 | 2.6 | 7.0 | 0.00 | 0.00 | 0.00 | 78 | 1013.6 |
| 20260904141138 | 82 | 120 | 2.6 | 6.1 | 0.00 | 0.00 | 0.00 | 78 | 1013.5 |
| 20260904140640 | 82 | 212 | 3.5 | 7.8 | 0.00 | 0.00 | 0.00 | 79 | 1013.6 |
| 20260904140136 | 82 | 252 | 3.5 | 7.8 | 0.00 | 0.00 | 0.00 | 79 | 1013.6 |
| 20260904135635 | 81 | 222 | 2.6 | 7.0 | 0.00 | 0.00 | 0.00 | 80 | 1013.5 |
| 20260904135340 | 81 | 146 | 2.6 | 7.0 | 0.00 | 0.00 | 0.00 | 81 | 1013.5 |
| 20260904134842 | 80 | 217 | 3.5 | 9.6 | 0.00 | 0.00 | 0.00 | 82 | 1013.4 |
| 20260904134049 | 80 | 134 | 2.6 | 7.8 | 0.00 | 0.00 | 0.00 | 83 | 1013.3 |
| 20260904133752 | 80 | 135 | 2.6 | 9.6 | 0.00 | 0.00 | 0.00 | 84 | 1013.3 |
| 20260904133009 | 79 | 257 | 2.6 | 9.6 | 0.00 | 0.00 | 0.00 | 84 | 1013.3 |
| 20260904132511 | 79 | 115 | 2.6 | 7.8 | 0.00 | 0.00 | 0.00 | 84 | 1013.2 |
| 20260904131949 | 79 | 265 | 2.6 | 7.8 | 0.00 | 0.00 | 0.00 | 85 | 1013.2 |
| 20260904131429 | 79 | 238 | 1.7 | 5.2 | 0.00 | 0.00 | 0.00 | 85 | 1013.2 |
| 20260904130929 | 79 | 117 | 1.7 | 7.0 | 0.00 | 0.00 | 0.00 | 85 | 1013.1 |
| 20260904130429 | 79 | 112 | 1.7 | 7.0 | 0.00 | 0.00 | 0.00 | 85 | 1013.1 |
| 20260904125935 | 78 | 165 | 1.7 | 4.3 | 0.00 | 0.00 | 0.00 | 85 | 1013.0 |
| 20260904125629 | 78 | 173 | 1.7 | 5.2 | 0.00 | 0.00 | 0.00 | 85 | 1013.0 |
| 20260904124840 | 78 | 133 | 1.7 | 5.2 | 0.00 | 0.00 | 0.00 | 85 | 1012.9 |
| 20260904124339 | 78 | 135 | 1.7 | 7.0 | 0.00 | 0.00 | 0.00 | 85 | 1012.9 |
| 20260904123814 | 78 | 135 | 1.7 | 5.2 | 0.00 | 0.00 | 0.00 | 86 | 1012.8 |
| 20260904123304 | 78 | 127 | 0.9 | 4.3 | 0.00 | 0.00 | 0.00 | 86 | 1012.8 |
| 20260904122805 | 78 | 153 | 0.9 | 3.5 | 0.00 | 0.00 | 0.00 | 86 | 1012.9 |
| 20260904122248 | 77 | 165 | 0.9 | 4.3 | 0.00 | 0.00 | 0.00 | 86 | 1012.9 |
| 20260904121743 | 77 | 136 | 0.9 | 4.3 | 0.00 | 0.00 | 0.00 | 86 | 1012.8 |
| 20260904121240 | 77 | 138 | 0.0 | 3.5 | 0.00 | 0.00 | 0.00 | 86 | 1012.8 |
| 20260904120717 | 77 | 120 | 0.0 | 2.6 | 0.00 | 0.00 | 0.00 | 86 | 1012.8 |
| 20260904120218 | 77 | 250 | 0.9 | 2.6 | 0.00 | 0.00 | 0.00 | 86 | 1012.8 |
| 20260904115654 | 77 | 121 | 0.9 | 5.2 | 0.00 | 0.00 | 0.00 | 86 | 1012.8 |
| 20260904115133 | 77 | 125 | 1.7 | 4.3 | 0.00 | 0.00 | 0.00 | 86 | 1012.7 |
| 20260904114604 | 77 | 142 | 0.9 | 4.3 | 0.00 | 0.00 | 0.00 | 86 | 1012.7 |
| 20260904114102 | 77 | 153 | 0.9 | 3.5 | 0.00 | 0.00 | 0.00 | 86 | 1012.6 |
| 20260904113534 | 77 | 135 | 0.9 | 3.5 | 0.00 | 0.00 | 0.00 | 85 | 1012.5 |
| 20260904113009 | 77 | 126 | 0.9 | 4.3 | 0.00 | 0.00 | 0.00 | 85 | 1012.5 |
| 20260904112505 | 77 | 127 | 0.9 | 4.3 | 0.00 | 0.00 | 0.00 | 85 | 1012.4 |
| 20260904112233 | 77 | 131 | 0.0 | 4.3 | 0.00 | 0.00 | 0.00 | 84 | 1012.4 |
| 20260904111459 | 78 | 134 | 0.9 | 5.2 | 0.00 | 0.00 | 0.00 | 84 | 1012.4 |
| 20260904111226 | 78 | 164 | 0.9 | 6.1 | 0.00 | 0.00 | 0.00 | 84 | 1012.3 |
| 20260904110430 | 78 | 113 | 0.9 | 6.1 | 0.00 | 0.00 | 0.00 | 84 | 1012.3 |
| 20260904105926 | 78 | 141 | 1.7 | 6.1 | 0.00 | 0.00 | 0.00 | 84 | 1012.3 |
| 20260904105626 | 78 | 108 | 0.9 | 3.5 | 0.00 | 0.00 | 0.00 | 84 | 1012.4 |
| 20260904104856 | 78 | 136 | 0.0 | 1.7 | 0.00 | 0.00 | 0.00 | 83 | 1012.4 |
| 20260904104356 | 78 | 122 | 0.9 | 4.3 | 0.00 | 0.00 | 0.00 | 83 | 1012.3 |
| 20260904103832 | 78 | 117 | 0.9 | 4.3 | 0.00 | 0.00 | 0.00 | 83 | 1012.3 |
| 20260904103524 | 78 | 134 | 0.9 | 3.5 | 0.00 | 0.00 | 0.00 | 83 | 1012.2 |
| 20260904102803 | 78 | 231 | 1.7 | 5.2 | 0.00 | 0.00 | 0.00 | 83 | 1012.2 |
| 20260904102236 | 78 | 149 | 0.9 | 5.2 | 0.00 | 0.00 | 0.00 | 83 | 1012.2 |
| 20260904101708 | 78 | 143 | 0.9 | 3.5 | 0.00 | 0.00 | 0.00 | 82 | 1012.1 |
| 20260904101141 | 78 | 124 | 0.9 | 4.3 | 0.00 | 0.00 | 0.00 | 82 | 1012.2 |
| 20260904100639 | 78 | 101 | 0.9 | 4.3 | 0.00 | 0.00 | 0.00 | 82 | 1012.2 |
| 20260904100111 | 78 | 133 | 0.9 | 7.0 | 0.00 | 0.00 | 0.00 | 82 | 1012.1 |
| 20260904095543 | 78 | 171 | 0.9 | 7.0 | 0.00 | 0.00 | 0.00 | 81 | 1012.1 |
| 20260904095043 | 78 | 236 | 0.9 | 3.5 | 0.00 | 0.00 | 0.00 | 81 | 1012.1 |
| 20260904094514 | 78 | 131 | 0.9 | 4.3 | 0.00 | 0.00 | 0.00 | 80 | 1012.1 |
| 20260904093950 | 78 | 154 | 0.9 | 4.3 | 0.00 | 0.00 | 0.00 | 80 | 1012.2 |
| 20260904093429 | 78 | 206 | 0.9 | 4.3 | 0.00 | 0.00 | 0.00 | 80 | 1012.1 |
| 20260904092928 | 78 | 184 | 0.9 | 4.3 | 0.00 | 0.00 | 0.00 | 80 | 1012.0 |
| 20260904092407 | 78 | 207 | 0.9 | 3.5 | 0.00 | 0.00 | 0.00 | 80 | 1012.0 |
| 20260904091907 | 78 | 142 | 0.9 | 7.0 | 0.00 | 0.00 | 0.00 | 79 | 1012.0 |
| 20260904091405 | 78 | 120 | 1.7 | 7.0 | 0.00 | 0.00 | 0.00 | 79 | 1012.0 |
| 20260904091121 | 78 | 228 | 0.9 | 6.1 | 0.00 | 0.00 | 0.00 | 79 | 1012.1 |
| 20260904090401 | 78 | 130 | 0.9 | 4.3 | 0.00 | 0.00 | 0.00 | 79 | 1012.1 |
| 20260904085833 | 78 | 158 | 1.7 | 4.3 | 0.00 | 0.00 | 0.00 | 79 | 1012.1 |
| 20260904085531 | 78 | 139 | 0.9 | 4.3 | 0.00 | 0.01 | 0.00 | 79 | 1012.1 |
| 20260904084740 | 78 | 201 | 0.9 | 4.3 | 0.00 | 0.01 | 0.00 | 79 | 1012.1 |
| 20260904084723 | 78 | 127 | 0.0 | 2.6 | 0.00 | 0.01 | 0.00 | 79 | 1012.0 |
| 20260904083734 | 78 | 122 | 0.9 | 5.2 | 0.00 | 0.01 | 0.00 | 78 | 1012.1 |
| 20260904083205 | 78 | 131 | 0.9 | 5.2 | 0.00 | 0.01 | 0.00 | 78 | 1012.0 |
| 20260904082706 | 78 | 217 | 0.9 | 4.3 | 0.00 | 0.01 | 0.00 | 78 | 1012.0 |
| 20260904082205 | 78 | 133 | 0.9 | 4.3 | 0.00 | 0.01 | 0.00 | 78 | 1011.9 |
| 20260904081704 | 78 | 117 | 0.9 | 2.6 | 0.00 | 0.01 | 0.00 | 78 | 1012.0 |
| 20260904081135 | 78 | 139 | 0.0 | 1.7 | 0.00 | 0.01 | 0.00 | 77 | 1012.0 |
| 20260904080634 | 77 | 138 | 0.0 | 1.7 | 0.00 | 0.01 | 0.00 | 77 | 1012.1 |
| 20260904080109 | 77 | 129 | 0.0 | 1.7 | 0.00 | 0.01 | 0.00 | 77 | 1012.1 |
| 20260904075555 | 78 | 116 | 0.0 | 1.7 | 0.00 | 0.01 | 0.00 | 77 | 1012.0 |
| 20260904075058 | 78 | 260 | 0.0 | 2.6 | 0.00 | 0.01 | 0.00 | 76 | 1011.9 |
| 20260904074753 | 78 | 120 | 0.0 | 4.3 | 0.00 | 0.01 | 0.00 | 76 | 1011.7 |
| 20260904074025 | 78 | 131 | 0.9 | 4.3 | 0.00 | 0.01 | 0.00 | 76 | 1011.9 |
| 20260904074001 | 78 | 132 | 0.9 | 4.3 | 0.00 | 0.01 | 0.00 | 76 | 1011.7 |
| 20260904073500 | 78 | 136 | 1.7 | 4.3 | 0.00 | 0.01 | 0.00 | 76 | 1011.7 |
| 20260904072514 | 78 | 221 | 0.9 | 4.3 | 0.00 | 0.01 | 0.00 | 75 | 1011.9 |
| 20260904072009 | 78 | 150 | 0.9 | 3.5 | 0.00 | 0.01 | 0.00 | 75 | 1012.0 |
| 20260904071507 | 78 | 119 | 0.9 | 2.6 | 0.00 | 0.01 | 0.00 | 75 | 1012.0 |
| 20260904071227 | 78 | 132 | 0.9 | 2.6 | 0.00 | 0.01 | 0.00 | 75 | 1012.0 |
| 20260904070504 | 78 | 195 | 0.9 | 3.5 | 0.00 | 0.01 | 0.00 | 74 | 1012.1 |
| 20260904065933 | 78 | 211 | 0.9 | 3.5 | 0.00 | 0.01 | 0.00 | 74 | 1012.1 |
| 20260904065432 | 78 | 161 | 0.9 | 4.3 | 0.00 | 0.01 | 0.00 | 74 | 1012.1 |
| 20260904064906 | 79 | 126 | 0.9 | 4.3 | 0.00 | 0.01 | 0.00 | 74 | 1012.1 |
| 20260904064337 | 79 | 188 | 1.7 | 4.3 | 0.00 | 0.01 | 0.00 | 73 | 1012.2 |
| 20260904063827 | 79 | 221 | 1.7 | 5.2 | 0.00 | 0.01 | 0.00 | 73 | 1012.2 |
| 20260904063323 | 79 | 144 | 2.6 | 6.1 | 0.00 | 0.01 | 0.00 | 73 | 1012.2 |
| 20260904062821 | 79 | 238 | 1.7 | 6.1 | 0.00 | 0.01 | 0.00 | 73 | 1012.2 |
| 20260904062253 | 79 | 142 | 0.9 | 4.3 | 0.00 | 0.01 | 0.00 | 73 | 1012.1 |
| 20260904062017 | 79 | 188 | 1.7 | 5.2 | 0.00 | 0.01 | 0.00 | 72 | 1012.1 |
| 20260904061225 | 79 | 262 | 2.6 | 5.2 | 0.00 | 0.01 | 0.00 | 72 | 1012.1 |
| 20260904060701 | 79 | 233 | 1.7 | 5.2 | 0.00 | 0.01 | 0.00 | 72 | 1012.1 |
| 20260904060202 | 79 | 128 | 1.7 | 5.2 | 0.00 | 0.01 | 0.00 | 71 | 1012.2 |
| 20260904055633 | 79 | 198 | 1.7 | 6.1 | 0.00 | 0.01 | 0.00 | 70 | 1012.2 |
| 20260904055129 | 80 | 215 | 2.6 | 4.3 | 0.00 | 0.01 | 0.00 | 70 | 1012.2 |
| 20260904054608 | 80 | 207 | 2.6 | 6.1 | 0.00 | 0.01 | 0.00 | 70 | 1012.2 |
| 20260904054034 | 80 | 233 | 2.6 | 7.0 | 0.00 | 0.01 | 0.00 | 69 | 1012.1 |
| 20260904053531 | 80 | 171 | 2.6 | 7.0 | 0.00 | 0.01 | 0.00 | 69 | 1012.1 |
| 20260904053027 | 80 | 230 | 2.6 | 6.1 | 0.00 | 0.01 | 0.00 | 69 | 1012.0 |
| 20260904052507 | 80 | 156 | 2.6 | 6.1 | 0.00 | 0.01 | 0.00 | 69 | 1012.0 |
| 20260904052007 | 80 | 151 | 1.7 | 5.2 | 0.00 | 0.01 | 0.00 | 69 | 1012.0 |
| 20260904051504 | 80 | 197 | 1.7 | 5.2 | 0.00 | 0.01 | 0.00 | 68 | 1012.1 |
| 20260904050951 | 80 | 162 | 1.7 | 7.0 | 0.00 | 0.01 | 0.00 | 68 | 1012.0 |
| 20260904050447 | 80 | 247 | 2.6 | 7.0 | 0.00 | 0.01 | 0.00 | 68 | 1012.0 |
| 20260904045927 | 80 | 160 | 1.7 | 6.1 | 0.00 | 0.01 | 0.01 | 67 | 1012.0 |
| 20260904045425 | 80 | 194 | 1.7 | 6.1 | 0.00 | 0.01 | 0.01 | 67 | 1012.1 |
| 20260904044925 | 80 | 188 | 1.7 | 5.2 | 0.00 | 0.01 | 0.01 | 66 | 1012.1 |
| 20260904044422 | 80 | 94 | 1.7 | 5.2 | 0.00 | 0.01 | 0.01 | 66 | 1012.1 |
| 20260904043921 | 80 | 139 | 1.7 | 5.2 | 0.00 | 0.01 | 0.01 | 66 | 1012.1 |
| 20260904043419 | 80 | 125 | 2.6 | 5.2 | 0.00 | 0.01 | 0.01 | 65 | 1012.1 |
| 20260904042922 | 80 | 188 | 2.6 | 7.8 | 0.00 | 0.01 | 0.01 | 65 | 1012.2 |
| 20260904042352 | 81 | 186 | 2.6 | 7.8 | 0.00 | 0.01 | 0.01 | 65 | 1012.3 |
| 20260904041851 | 81 | 221 | 1.7 | 7.0 | 0.00 | 0.01 | 0.01 | 65 | 1012.2 |
| 20260904041355 | 81 | 229 | 2.6 | 5.2 | 0.00 | 0.01 | 0.01 | 65 | 1012.3 |
| 20260904040835 | 81 | 220 | 2.6 | 6.1 | 0.00 | 0.01 | 0.01 | 65 | 1012.2 |
| 20260904040310 | 81 | 150 | 2.6 | 5.2 | 0.00 | 0.01 | 0.01 | 64 | 1012.2 |
| 20260904035803 | 81 | 256 | 2.6 | 6.1 | 0.00 | 0.01 | 0.01 | 64 | 1012.2 |
| 20260904035245 | 81 | 254 | 2.6 | 5.2 | 0.00 | 0.01 | 0.01 | 64 | 1012.1 |
| 20260904034743 | 81 | 207 | 1.7 | 6.1 | 0.00 | 0.01 | 0.01 | 64 | 1012.1 |
| 20260904034245 | 81 | 194 | 1.7 | 6.1 | 0.00 | 0.01 | 0.01 | 64 | 1012.1 |
| 20260904033725 | 81 | 117 | 1.7 | 7.0 | 0.00 | 0.01 | 0.01 | 64 | 1012.2 |
| 20260904033218 | 81 | 127 | 2.6 | 6.1 | 0.00 | 0.01 | 0.01 | 64 | 1012.2 |
| 20260904032659 | 82 | 200 | 2.6 | 8.7 | 0.00 | 0.01 | 0.01 | 64 | 1012.2 |
| 20260904032138 | 82 | 266 | 2.6 | 8.7 | 0.00 | 0.01 | 0.01 | 64 | 1012.4 |
| 20260904031641 | 82 | 242 | 2.6 | 8.7 | 0.00 | 0.01 | 0.01 | 64 | 1012.3 |
| 20260904031116 | 82 | 113 | 2.6 | 5.2 | 0.00 | 0.01 | 0.01 | 64 | 1012.2 |
| 20260904030559 | 82 | 200 | 3.5 | 8.7 | 0.00 | 0.01 | 0.01 | 64 | 1012.2 |
| 20260904030256 | 82 | 98 | 3.5 | 7.8 | 0.00 | 0.01 | 0.01 | 64 | 1012.0 |
| 20260904025510 | 82 | 117 | 3.5 | 10.4 | 0.00 | 0.01 | 0.01 | 64 | 1012.0 |
| 20260904025005 | 82 | 245 | 3.5 | 10.4 | 0.00 | 0.01 | 0.01 | 64 | 1011.9 |
| 20260904024503 | 82 | 131 | 2.6 | 7.0 | 0.00 | 0.01 | 0.01 | 64 | 1011.9 |
| 20260904024004 | 82 | 181 | 2.6 | 7.0 | 0.00 | 0.01 | 0.01 | 64 | 1011.7 |
| 20260904023439 | 83 | 250 | 3.5 | 7.0 | 0.00 | 0.01 | 0.01 | 65 | 1011.5 |
| 20260904022913 | 83 | 172 | 2.6 | 8.7 | 0.00 | 0.01 | 0.01 | 65 | 1011.5 |
| 20260904022410 | 83 | 82 | 2.6 | 8.7 | 0.00 | 0.01 | 0.01 | 66 | 1011.4 |
| 20260904021910 | 83 | 244 | 2.6 | 7.0 | 0.00 | 0.01 | 0.01 | 67 | 1011.2 |
| 20260904021409 | 83 | 133 | 2.6 | 9.6 | 0.00 | 0.01 | 0.01 | 66 | 1011.1 |
| 20260904020905 | 83 | 165 | 3.5 | 8.7 | 0.00 | 0.01 | 0.01 | 65 | 1011.1 |
| 20260904020341 | 83 | 207 | 3.5 | 9.6 | 0.00 | 0.01 | 0.01 | 64 | 1011.1 |
| 20260904015812 | 83 | 120 | 2.6 | 7.8 | 0.00 | 0.01 | 0.01 | 64 | 1010.9 |
| 20260904015308 | 84 | 218 | 1.7 | 7.0 | 0.00 | 0.01 | 0.01 | 64 | 1010.9 |
| 20260904014806 | 84 | 115 | 1.7 | 6.1 | 0.00 | 0.01 | 0.01 | 65 | 1010.8 |
| 20260904014305 | 84 | 133 | 3.5 | 6.1 | 0.00 | 0.01 | 0.01 | 65 | 1010.8 |
| 20260904013736 | 84 | 126 | 3.5 | 7.8 | 0.00 | 0.01 | 0.01 | 64 | 1010.8 |
| 20260904013211 | 84 | 124 | 2.6 | 7.8 | 0.00 | 0.01 | 0.01 | 64 | 1010.7 |
| 20260904012642 | 85 | 170 | 3.5 | 7.0 | 0.00 | 0.01 | 0.01 | 64 | 1010.6 |
| 20260904012338 | 85 | 195 | 3.5 | 7.8 | 0.00 | 0.01 | 0.01 | 64 | 1010.6 |
| 20260904011608 | 85 | 151 | 2.6 | 7.8 | 0.00 | 0.01 | 0.01 | 65 | 1010.5 |
| 20260904011044 | 85 | 108 | 2.6 | 8.7 | 0.00 | 0.01 | 0.01 | 64 | 1010.4 |
| 20260904010744 | 85 | 115 | 2.6 | 8.7 | 0.00 | 0.01 | 0.01 | 64 | 1010.4 |
| 20260904010022 | 85 | 152 | 2.6 | 9.6 | 0.00 | 0.01 | 0.01 | 63 | 1010.4 |
| 20260904005523 | 85 | 144 | 3.5 | 9.6 | 0.00 | 0.01 | 0.01 | 63 | 1010.5 |
| 20260904005022 | 85 | 96 | 2.6 | 7.8 | 0.00 | 0.01 | 0.01 | 63 | 1010.5 |
| 20260904004518 | 86 | 216 | 3.5 | 11.3 | 0.00 | 0.01 | 0.01 | 62 | 1010.5 |
| 20260904004239 | 86 | 136 | 4.3 | 11.3 | 0.00 | 0.01 | 0.01 | 62 | 1010.5 |
| 20260904003511 | 86 | 112 | 3.5 | 7.8 | 0.00 | 0.01 | 0.01 | 61 | 1010.4 |
| 20260904002947 | 87 | 180 | 4.3 | 11.3 | 0.00 | 0.01 | 0.01 | 60 | 1010.4 |
| 20260904002420 | 87 | 152 | 5.2 | 12.2 | 0.00 | 0.01 | 0.01 | 59 | 1010.4 |
| 20260904001915 | 87 | 105 | 5.2 | 12.2 | 0.00 | 0.01 | 0.01 | 58 | 1010.3 |
| 20260904001634 | 87 | 119 | 5.2 | 11.3 | 0.00 | 0.01 | 0.01 | 57 | 1010.3 |
| 20260904000910 | 88 | 117 | 4.3 | 11.3 | 0.00 | 0.01 | 0.01 | 56 | 1010.3 |
| 20260904000406 | 88 | 166 | 3.5 | 7.8 | 0.00 | 0.01 | 0.01 | 55 | 1010.3 |
| 20260903235904 | 88 | 110 | 4.3 | 8.7 | 0.00 | 0.01 | 0.01 | 55 | 1010.3 |
| 20260903235336 | 88 | 122 | 4.3 | 10.4 | 0.00 | 0.01 | 0.01 | 55 | 1010.3 |
| 20260903235055 | 88 | 136 | 4.3 | 11.3 | 0.00 | 0.01 | 0.01 | 55 | 1010.2 |
| 20260903234331 | 89 | 124 | 2.6 | 11.3 | 0.00 | 0.01 | 0.01 | 55 | 1010.2 |
| 20260903233828 | 89 | 279 | 3.5 | 12.2 | 0.00 | 0.01 | 0.01 | 56 | 1010.2 |
| 20260903233312 | 89 | 126 | 4.3 | 12.2 | 0.00 | 0.01 | 0.01 | 56 | 1010.2 |
| 20260903232744 | 89 | 167 | 4.3 | 11.3 | 0.00 | 0.01 | 0.01 | 57 | 1010.0 |
| 20260903232242 | 89 | 137 | 5.2 | 11.3 | 0.00 | 0.01 | 0.01 | 56 | 1010.0 |
| 20260903232159 | 89 | 142 | 5.2 | 11.3 | 0.00 | 0.01 | 0.01 | 56 | 1010.1 |
| 20260903231148 | 89 | 131 | 5.2 | 12.2 | 0.00 | 0.01 | 0.01 | 56 | 1010.1 |
| 20260903230912 | 89 | 137 | 5.2 | 12.2 | 0.00 | 0.01 | 0.01 | 55 | 1010.0 |
| 20260903230119 | 89 | 110 | 5.2 | 11.3 | 0.00 | 0.01 | 0.01 | 55 | 1010.0 |
| 20260903225615 | 90 | 149 | 4.3 | 11.3 | 0.00 | 0.01 | 0.01 | 54 | 1010.0 |
| 20260903225113 | 90 | 143 | 4.3 | 8.7 | 0.00 | 0.01 | 0.01 | 54 | 1010.0 |
| 20260903224549 | 91 | 154 | 3.5 | 10.4 | 0.00 | 0.01 | 0.01 | 54 | 1009.9 |
| 20260903224020 | 91 | 223 | 3.5 | 9.6 | 0.00 | 0.01 | 0.01 | 53 | 1009.9 |
| 20260903223516 | 91 | 141 | 3.5 | 9.6 | 0.00 | 0.02 | 0.01 | 54 | 1009.9 |
| 20260903223211 | 90 | 116 | 4.3 | 9.6 | 0.00 | 0.05 | 0.01 | 53 | 1009.9 |
| 20260903222641 | 90 | 217 | 4.3 | 10.4 | 0.00 | 0.05 | 0.01 | 53 | 1009.9 |
| 20260903221918 | 90 | 107 | 5.2 | 10.4 | 0.00 | 0.05 | 0.01 | 54 | 1009.9 |
| 20260903221640 | 90 | 153 | 5.2 | 11.3 | 0.00 | 0.05 | 0.01 | 53 | 1009.9 |
| 20260903220914 | 90 | 108 | 5.2 | 11.3 | 0.00 | 0.05 | 0.01 | 52 | 1009.9 |
| 20260903220349 | 90 | 113 | 5.2 | 10.4 | 0.00 | 0.05 | 0.01 | 53 | 1009.9 |
| 20260903215842 | 91 | 145 | 5.2 | 11.3 | 0.00 | 0.05 | 0.01 | 52 | 1010.0 |
| 20260903215314 | 91 | 262 | 4.3 | 11.3 | 0.00 | 0.05 | 0.01 | 52 | 1010.1 |
| 20260903214808 | 91 | 91 | 4.3 | 9.6 | 0.00 | 0.05 | 0.01 | 52 | 1010.1 |
| 20260903214306 | 91 | 203 | 5.2 | 9.6 | 0.00 | 0.05 | 0.01 | 52 | 1010.2 |
| 20260903213738 | 91 | 171 | 4.3 | 9.6 | 0.00 | 0.05 | 0.01 | 52 | 1010.2 |
| 20260903213236 | 91 | 226 | 4.3 | 8.7 | 0.00 | 0.05 | 0.01 | 51 | 1010.3 |
| 20260903212706 | 91 | 112 | 4.3 | 10.4 | 0.00 | 0.05 | 0.01 | 53 | 1010.2 |
| 20260903212142 | 91 | 212 | 5.2 | 10.4 | 0.00 | 0.05 | 0.01 | 53 | 1010.3 |
| 20260903211617 | 90 | 250 | 6.1 | 12.2 | 0.00 | 0.05 | 0.01 | 53 | 1010.4 |
| 20260903211104 | 91 | 231 | 5.2 | 12.2 | 0.00 | 0.05 | 0.01 | 53 | 1010.4 |
| 20260903210607 | 91 | 128 | 5.2 | 10.4 | 0.00 | 0.05 | 0.01 | 52 | 1010.5 |
| 20260903210048 | 91 | 188 | 5.2 | 10.4 | 0.00 | 0.05 | 0.01 | 54 | 1010.5 |
| 20260903205545 | 90 | 199 | 5.2 | 11.3 | 0.00 | 0.05 | 0.01 | 53 | 1010.6 |
| 20260903205505 | 90 | 162 | 5.2 | 11.3 | 0.00 | 0.05 | 0.01 | 54 | 1010.6 |
| 20260903204720 | 91 | 200 | 4.3 | 10.4 | 0.00 | 0.05 | 0.01 | 53 | 1010.7 |
| 20260903203928 | 90 | 60 | 4.3 | 10.4 | 0.00 | 0.05 | 0.01 | 54 | 1010.8 |
| 20260903203401 | 90 | 148 | 5.2 | 10.4 | 0.00 | 0.05 | 0.01 | 55 | 1010.8 |
| 20260903202901 | 90 | 123 | 5.2 | 11.3 | 0.00 | 0.05 | 0.01 | 56 | 1011.0 |
| 20260903202332 | 90 | 115 | 5.2 | 11.3 | 0.00 | 0.05 | 0.01 | 55 | 1011.1 |
| 20260903201828 | 90 | 240 | 4.3 | 11.3 | 0.00 | 0.05 | 0.01 | 55 | 1011.1 |
| 20260903201327 | 90 | 250 | 4.3 | 11.3 | 0.00 | 0.05 | 0.01 | 55 | 1011.2 |
| 20260903200824 | 89 | 217 | 5.2 | 10.4 | 0.00 | 0.05 | 0.01 | 56 | 1011.2 |
| 20260903200302 | 89 | 139 | 5.2 | 10.4 | 0.00 | 0.05 | 0.01 | 57 | 1011.2 |
| 20260903195803 | 89 | 243 | 5.2 | 9.6 | 0.00 | 0.05 | 0.01 | 58 | 1011.2 |
| 20260903195233 | 88 | 165 | 5.2 | 10.4 | 0.00 | 0.05 | 0.01 | 59 | 1011.2 |
| 20260903194731 | 88 | 229 | 5.2 | 11.3 | 0.00 | 0.05 | 0.01 | 58 | 1011.2 |
| 20260903194224 | 88 | 173 | 4.3 | 11.3 | 0.00 | 0.05 | 0.01 | 59 | 1011.3 |
| 20260903193700 | 88 | 267 | 5.2 | 10.4 | 0.00 | 0.05 | 0.01 | 59 | 1011.3 |
| 20260903193352 | 88 | 162 | 4.3 | 8.7 | 0.00 | 0.05 | 0.01 | 58 | 1011.3 |
| 20260903192626 | 88 | 160 | 4.3 | 11.3 | 0.00 | 0.05 | 0.01 | 60 | 1011.4 |
| 20260903192129 | 87 | 146 | 5.2 | 10.4 | 0.00 | 0.05 | 0.01 | 60 | 1011.5 |
| 20260903191603 | 86 | 164 | 5.2 | 11.3 | 0.00 | 0.05 | 0.01 | 62 | 1011.6 |
| 20260903191046 | 86 | 120 | 4.3 | 11.3 | 0.00 | 0.05 | 0.01 | 62 | 1011.7 |
| 20260903190809 | 86 | 240 | 3.5 | 10.4 | 0.00 | 0.05 | 0.01 | 62 | 1012.0 |
| 20260903190017 | 86 | 123 | 4.3 | 10.4 | 0.00 | 0.05 | 0.01 | 62 | 1012.0 |
| 20260903185517 | 86 | 238 | 4.3 | 10.4 | 0.00 | 0.05 | 0.01 | 61 | 1012.1 |
| 20260903185218 | 87 | 160 | 5.2 | 10.4 | 0.00 | 0.05 | 0.01 | 60 | 1012.2 |
| 20260903184450 | 87 | 230 | 5.2 | 11.3 | 0.00 | 0.05 | 0.01 | 61 | 1012.2 |
| 20260903183920 | 86 | 229 | 6.1 | 12.2 | 0.00 | 0.05 | 0.01 | 64 | 1012.3 |
| 20260903183419 | 86 | 139 | 6.1 | 17.4 | 0.00 | 0.05 | 0.01 | 63 | 1012.3 |
| 20260903182915 | 86 | 117 | 5.2 | 17.4 | 0.00 | 0.05 | 0.01 | 63 | 1012.3 |
| 20260903182413 | 86 | 248 | 5.2 | 10.4 | 0.00 | 0.05 | 0.01 | 63 | 1012.4 |
| 20260903181855 | 85 | 131 | 6.1 | 13.9 | 0.00 | 0.05 | 0.01 | 65 | 1012.5 |
| 20260903181357 | 85 | 122 | 6.1 | 12.2 | 0.00 | 0.05 | 0.01 | 65 | 1012.6 |
| 20260903180830 | 84 | 246 | 5.2 | 13.0 | 0.00 | 0.05 | 0.01 | 67 | 1012.6 |
| 20260903180329 | 84 | 217 | 5.2 | 13.0 | 0.00 | 0.05 | 0.01 | 68 | 1012.7 |